• In Germany
  • List of Countries
  • For 7 days
  • Water Temperature
  • Satellite Maps
  • Weather Map
  • Weather Widgets
  • user-avatar
    Login

    Hourly Weather Mykhalkiv

    Today, 21 July, Saturday

    Time Temperature Precipitation Wind Pressure Humidity
    00:00 +19°C° 0 mm 3 mps 743 mmHg 93%
    01:00 +19°C° 0 mm 3 mps 743 mmHg 93%
    02:00 +18°C° 0 mm 3 mps 742 mmHg 94%
    03:00 +18°C° 0 mm 3 mps 742 mmHg 94%
    04:00 +18°C° 0 mm 3 mps 743 mmHg 94%
    05:00 +18°C° 0 mm 3 mps 743 mmHg 94%
    06:00 +19°C° 0 mm 4 mps 743 mmHg 90%
    07:00 +21°C° 0 mm 4 mps 743 mmHg 87%
    08:00 +22°C° 0 mm 5 mps 743 mmHg 82%
    09:00 +23°C° 0.6 mm 5 mps 743 mmHg 78%
    10:00 +25°C° 0.6 mm 5 mps 743 mmHg 74%
    11:00 +26°C° 0.6 mm 5 mps 743 mmHg 69%
    12:00 +27°C° 0.2 mm 5 mps 743 mmHg 68%
    13:00 +27°C° 0.2 mm 5 mps 743 mmHg 66%
    14:00 +28°C° 0 mm 5 mps 743 mmHg 64%
    15:00 +28°C° 0.6 mm 4 mps 743 mmHg 66%
    16:00 +27°C° 0.6 mm 4 mps 743 mmHg 68%
    17:00 +27°C° 0.6 mm 4 mps 743 mmHg 71%
    18:00 +26°C° 0.4 mm 3 mps 743 mmHg 76%
    19:00 +24°C° 0.4 mm 3 mps 743 mmHg 80%
    20:00 +23°C° 0.4 mm 2 mps 743 mmHg 85%
    21:00 +21°C° 0.1 mm 2 mps 743 mmHg 87%
    22:00 +20°C° 0.1 mm 2 mps 744 mmHg 89%
    23:00 +19°C° 0.1 mm 2 mps 744 mmHg 91%

    Tomorrow, 22 July, Sunday

    Time Temperature Precipitation Wind Pressure Humidity
    00:00 +19°C° 0 mm 2 mps 744 mmHg 91%
    01:00 +18°C° 0 mm 2 mps 744 mmHg 92%
    02:00 +18°C° 0 mm 2 mps 744 mmHg 92%
    03:00 +18°C° 0 mm 2 mps 743 mmHg 92%
    04:00 +17°C° 0 mm 2 mps 743 mmHg 92%
    05:00 +17°C° 0 mm 2 mps 743 mmHg 92%
    06:00 +19°C° 0 mm 2 mps 743 mmHg 88%
    07:00 +20°C° 0 mm 2 mps 743 mmHg 84%
    08:00 +23°C° 0 mm 2 mps 743 mmHg 79%
    09:00 +24°C° 0.1 mm 2 mps 743 mmHg 74%
    10:00 +26°C° 0.1 mm 2 mps 743 mmHg 68%
    11:00 +27°C° 0.1 mm 3 mps 743 mmHg 62%
    12:00 +28°C° 0.1 mm 3 mps 742 mmHg 60%
    13:00 +28°C° 0.1 mm 3 mps 742 mmHg 58%
    14:00 +29°C° 0.1 mm 3 mps 742 mmHg 56%
    15:00 +28°C° 0.2 mm 3 mps 742 mmHg 58%
    16:00 +28°C° 0.2 mm 3 mps 742 mmHg 60%
    17:00 +28°C° 0.2 mm 3 mps 742 mmHg 61%
    18:00 +26°C° 0.1 mm 2 mps 741 mmHg 67%
    19:00 +25°C° 0.1 mm 2 mps 741 mmHg 73%
    20:00 +23°C° 0.1 mm 2 mps 741 mmHg 79%
    21:00 +21°C° 0 mm 2 mps 741 mmHg 82%
    22:00 +21°C° 0 mm 2 mps 741 mmHg 85%
    23:00 +20°C° 0 mm 2 mps 742 mmHg 87%

    Day after tomorrow, 23 July, Monday

    Time Temperature Precipitation Wind Pressure Humidity
    00:00 +19°C° 0 mm 2 mps 742 mmHg 89%
    01:00 +19°C° 0 mm 2 mps 741 mmHg 91%
    02:00 +19°C° 0 mm 2 mps 741 mmHg 92%
    03:00 +18°C° 0 mm 2 mps 741 mmHg 93%
    04:00 +18°C° 0 mm 2 mps 741 mmHg 94%
    05:00 +18°C° 0 mm 2 mps 741 mmHg 94%
    06:00 +19°C° 0 mm 2 mps 741 mmHg 90%
    07:00 +21°C° 0 mm 3 mps 741 mmHg 86%
    08:00 +22°C° 0 mm 3 mps 741 mmHg 82%
    09:00 +23°C° 0.3 mm 4 mps 741 mmHg 79%
    10:00 +25°C° 0.3 mm 4 mps 741 mmHg 75%
    11:00 +26°C° 0.3 mm 4 mps 741 mmHg 71%
    12:00 +26°C° 0.7 mm 5 mps 740 mmHg 72%
    13:00 +26°C° 0.7 mm 5 mps 740 mmHg 72%
    14:00 +26°C° 0.7 mm 5 mps 740 mmHg 72%
    15:00 +26°C° 0.8 mm 5 mps 740 mmHg 75%
    16:00 +25°C° 0.8 mm 5 mps 739 mmHg 77%
    17:00 +25°C° 0.8 mm 5 mps 739 mmHg 80%
    18:00 +23°C° 2 mm 5 mps 739 mmHg 83%
    19:00 +22°C° 2 mm 5 mps 740 mmHg 86%
    20:00 +21°C° 2 mm 5 mps 740 mmHg 89%
    21:00 +21°C° 2 mm 4 mps 740 mmHg 91%
    22:00 +21°C° 2 mm 4 mps 740 mmHg 93%
    23:00 +20°C° 2 mm 3 mps 740 mmHg 95%

    24 July, Tuesday

    Time Temperature Precipitation Wind Pressure Humidity
    00:00 +20°C° 0.3 mm 3 mps 740 mmHg 95%
    01:00 +19°C° 0.3 mm 3 mps 740 mmHg 96%
    02:00 +19°C° 0.3 mm 3 mps 740 mmHg 97%
    03:00 +19°C° 0.2 mm 3 mps 740 mmHg 96%
    04:00 +19°C° 0.2 mm 3 mps 740 mmHg 96%
    05:00 +19°C° 0.2 mm 3 mps 740 mmHg 96%
    06:00 +20°C° 0.1 mm 3 mps 741 mmHg 94%
    07:00 +20°C° 0.1 mm 3 mps 741 mmHg 92%
    08:00 +20°C° 0.1 mm 3 mps 741 mmHg 91%
    09:00 +22°C° 0.3 mm 4 mps 741 mmHg 86%
    10:00 +23°C° 0.3 mm 4 mps 741 mmHg 81%
    11:00 +25°C° 0.3 mm 5 mps 741 mmHg 77%
    12:00 +25°C° 0.5 mm 5 mps 741 mmHg 75%
    13:00 +26°C° 0.5 mm 5 mps 741 mmHg 73%
    14:00 +27°C° 0.5 mm 5 mps 741 mmHg 71%
    15:00 +27°C° 0.4 mm 5 mps 741 mmHg 72%
    16:00 +26°C° 0.4 mm 5 mps 741 mmHg 73%
    17:00 +26°C° 0.4 mm 4 mps 741 mmHg 74%
    18:00 +25°C° 0.6 mm 4 mps 741 mmHg 79%
    19:00 +24°C° 0.6 mm 3 mps 741 mmHg 84%
    20:00 +21°C° 0.6 mm 3 mps 741 mmHg 89%
    21:00 +21°C° 0 mm 3 mps 741 mmHg 90%
    22:00 +20°C° 0 mm 3 mps 741 mmHg 92%
    23:00 +19°C° 0 mm 3 mps 742 mmHg 94%

    25 July, Wednesday

    Time Temperature Precipitation Wind Pressure Humidity
    00:00 +19°C° 0 mm 3 mps 742 mmHg 94%
    01:00 +19°C° 0 mm 2 mps 742 mmHg 95%
    02:00 +19°C° 0 mm 2 mps 742 mmHg 95%
    03:00 +18°C° 0 mm 2 mps 742 mmHg 95%
    04:00 +18°C° 0 mm 2 mps 742 mmHg 96%
    05:00 +18°C° 0 mm 2 mps 742 mmHg 96%
    06:00 +19°C° 0 mm 3 mps 742 mmHg 93%
    07:00 +20°C° 0 mm 3 mps 743 mmHg 91%
    08:00 +22°C° 0 mm 4 mps 743 mmHg 88%
    09:00 +23°C° 0.4 mm 4 mps 743 mmHg 84%
    10:00 +25°C° 0.4 mm 4 mps 743 mmHg 80%
    11:00 +26°C° 0.4 mm 4 mps 743 mmHg 75%
    12:00 +26°C° 0.7 mm 4 mps 743 mmHg 74%
    13:00 +27°C° 0.7 mm 4 mps 742 mmHg 73%
    14:00 +27°C° 0.7 mm 4 mps 742 mmHg 72%
    15:00 +27°C° 0.6 mm 4 mps 742 mmHg 74%
    16:00 +27°C° 0.6 mm 3 mps 742 mmHg 75%
    17:00 +27°C° 0.6 mm 3 mps 743 mmHg 77%
    18:00 +25°C° 0.4 mm 2 mps 743 mmHg 81%
    19:00 +24°C° 0.4 mm 2 mps 743 mmHg 85%
    20:00 +23°C° 0.4 mm 2 mps 743 mmHg 88%
    21:00 +23°C° 0 mm 2 mps 743 mmHg 90%
    22:00 +21°C° 0 mm 2 mps 743 mmHg 92%
    23:00 +20°C° 0 mm 2 mps 743 mmHg 93%

    26 July, Thursday

    Time Temperature Precipitation Wind Pressure Humidity
    00:00 +20°C° 0 mm 2 mps 743 mmHg 94%
    01:00 +20°C° 0 mm 2 mps 743 mmHg 94%
    02:00 +19°C° 0 mm 2 mps 743 mmHg 95%
    03:00 +19°C° 0 mm 2 mps 744 mmHg 95%
    04:00 +19°C° 0 mm 2 mps 744 mmHg 95%
    05:00 +19°C° 0 mm 2 mps 744 mmHg 95%
    06:00 +20°C° 0 mm 2 mps 744 mmHg 92%
    07:00 +21°C° 0 mm 2 mps 744 mmHg 89%
    08:00 +24°C° 0 mm 3 mps 744 mmHg 86%
    09:00 +25°C° 0.1 mm 3 mps 744 mmHg 82%
    10:00 +26°C° 0.1 mm 3 mps 744 mmHg 77%
    11:00 +27°C° 0.1 mm 3 mps 744 mmHg 72%
    12:00 +28°C° 0.5 mm 3 mps 744 mmHg 70%
    13:00 +28°C° 0.5 mm 3 mps 744 mmHg 68%
    14:00 +29°C° 0.5 mm 3 mps 744 mmHg 66%
    15:00 +29°C° 0.7 mm 2 mps 744 mmHg 66%
    16:00 +29°C° 0.7 mm 2 mps 744 mmHg 67%
    17:00 +29°C° 0.7 mm 2 mps 744 mmHg 68%
    18:00 +27°C° 0.2 mm 1 mps 744 mmHg 72%
    19:00 +26°C° 0.2 mm 1 mps 744 mmHg 76%
    20:00 +25°C° 0.2 mm 1 mps 744 mmHg 80%
    21:00 +24°C° 0.5 mm 1 mps 744 mmHg 83%
    22:00 +23°C° 0.5 mm 1 mps 744 mmHg 86%
    23:00 +23°C° 0.5 mm 1 mps 745 mmHg 88%
    Show more